| time (UTC) | temp F | wind direction | speed MPH | gust MPH | rain 1hr in | rain 24hr in | rain mn in | humidity % | barometer mb |
| 20260503225217 | 55 | 111 | 0.0 | 1.0 | 0.00 | 0.00 | 0.00 | 35 | 1011.8 |
| 20260503224715 | 55 | 104 | 3.0 | 3.0 | 0.00 | 0.00 | 0.00 | 33 | 1012.0 |
| 20260503224212 | 55 | 116 | 1.0 | 1.0 | 0.00 | 0.00 | 0.00 | 35 | 1011.6 |
| 20260503223710 | 56 | 328 | 2.0 | 2.0 | 0.00 | 0.00 | 0.00 | 31 | 1011.7 |
| 20260503223207 | 57 | 154 | 5.0 | 9.0 | 0.00 | 0.00 | 0.00 | 30 | 1011.3 |
| 20260503222703 | 56 | 114 | 0.0 | 1.0 | 0.00 | 0.00 | 0.00 | 35 | 1011.7 |
| 20260503222201 | 56 | 179 | 5.0 | 7.0 | 0.00 | 0.00 | 0.00 | 30 | 1011.7 |
| 20260503221659 | 57 | 10 | 4.0 | 6.0 | 0.00 | 0.00 | 0.00 | 31 | 1011.5 |
| 20260503221156 | 58 | 119 | 2.0 | 2.0 | 0.00 | 0.00 | 0.00 | 30 | 1011.6 |
| 20260503220653 | 57 | 75 | 2.0 | 2.0 | 0.00 | 0.00 | 0.00 | 31 | 1011.6 |
| 20260503220149 | 57 | 348 | 3.0 | 4.0 | 0.00 | 0.00 | 0.00 | 30 | 1011.7 |
| 20260503215647 | 59 | 20 | 2.0 | 2.0 | 0.00 | 0.00 | 0.00 | 31 | 1011.7 |
| 20260503215143 | 57 | 330 | 2.0 | 2.0 | 0.00 | 0.00 | 0.00 | 32 | 1011.6 |
| 20260503214642 | 57 | 111 | 2.0 | 3.0 | 0.00 | 0.00 | 0.00 | 31 | 1011.6 |
| 20260503214137 | 59 | 76 | 3.0 | 6.0 | 0.00 | 0.00 | 0.00 | 31 | 1011.4 |
| 20260503213632 | 58 | 175 | 1.0 | 2.0 | 0.00 | 0.00 | 0.00 | 36 | 1011.5 |
| 20260503213128 | 59 | 119 | 1.0 | 1.0 | 0.00 | 0.00 | 0.00 | 32 | 1011.5 |
| 20260503212626 | 59 | 19 | 0.0 | 1.0 | 0.00 | 0.00 | 0.00 | 37 | 1011.3 |
| 20260503212123 | 58 | 39 | 1.0 | 2.0 | 0.00 | 0.00 | 0.00 | 34 | 1011.6 |
| 20260503211621 | 56 | 271 | 2.0 | 6.0 | 0.00 | 0.00 | 0.00 | 37 | 1011.5 |
| 20260503211116 | 60 | 126 | 0.0 | 1.0 | 0.00 | 0.00 | 0.00 | 36 | 1011.5 |
| 20260503210612 | 59 | 12 | 4.0 | 6.0 | 0.00 | 0.00 | 0.00 | 31 | 1011.5 |
| 20260503210108 | 59 | 53 | 4.0 | 4.0 | 0.00 | 0.00 | 0.00 | 33 | 1011.5 |
| 20260503205604 | 59 | 304 | 4.0 | 7.0 | 0.00 | 0.00 | 0.00 | 33 | 1011.6 |
| 20260503205101 | 59 | 274 | 3.0 | 4.0 | 0.00 | 0.00 | 0.00 | 32 | 1011.5 |
| 20260503204558 | 58 | 110 | 1.0 | 2.0 | 0.00 | 0.00 | 0.00 | 36 | 1011.7 |
| 20260503204056 | 59 | 306 | 2.0 | 4.0 | 0.00 | 0.00 | 0.00 | 36 | 1011.4 |
| 20260503203552 | 60 | 89 | 2.0 | 3.0 | 0.00 | 0.00 | 0.00 | 36 | 1011.6 |
| 20260503203049 | 59 | 99 | 3.0 | 4.0 | 0.00 | 0.00 | 0.00 | 34 | 1011.6 |
| 20260503202547 | 56 | 266 | 5.0 | 7.0 | 0.00 | 0.00 | 0.00 | 34 | 1011.6 |
| 20260503202044 | 56 | 121 | 2.0 | 2.0 | 0.00 | 0.00 | 0.00 | 38 | 1011.7 |
| 20260503201543 | 57 | 292 | 2.0 | 2.0 | 0.00 | 0.00 | 0.00 | 38 | 1011.8 |
| 20260503201039 | 56 | 269 | 5.0 | 6.0 | 0.00 | 0.00 | 0.00 | 36 | 1011.6 |
| 20260503200535 | 56 | 192 | 5.0 | 7.0 | 0.00 | 0.00 | 0.00 | 38 | 1011.8 |
| 20260503200033 | 55 | 87 | 1.0 | 2.0 | 0.00 | 0.00 | 0.00 | 36 | 1011.8 |
| 20260503195530 | 55 | 100 | 4.0 | 4.0 | 0.00 | 0.00 | 0.00 | 39 | 1011.9 |
| 20260503195026 | 56 | 354 | 2.0 | 2.0 | 0.00 | 0.00 | 0.00 | 40 | 1011.6 |
| 20260503194524 | 55 | 8 | 2.0 | 3.0 | 0.00 | 0.00 | 0.00 | 40 | 1012.0 |
| 20260503194023 | 53 | 125 | 1.0 | 1.0 | 0.00 | 0.00 | 0.00 | 41 | 1012.0 |
| 20260503193520 | 52 | 97 | 1.0 | 1.0 | 0.00 | 0.00 | 0.00 | 44 | 1012.0 |
| 20260503193015 | 54 | 125 | 0.0 | 1.0 | 0.00 | 0.00 | 0.00 | 41 | 1012.1 |
| 20260503192512 | 51 | 111 | 1.0 | 1.0 | 0.00 | 0.00 | 0.00 | 43 | 1012.2 |
| 20260503192008 | 53 | 13 | 7.0 | 11.0 | 0.00 | 0.00 | 0.00 | 39 | 1012.2 |
| 20260503191505 | 53 | 177 | 2.0 | 3.0 | 0.00 | 0.00 | 0.00 | 43 | 1012.5 |
| 20260503191001 | 53 | 28 | 2.0 | 2.0 | 0.00 | 0.00 | 0.00 | 43 | 1012.1 |
| 20260503190459 | 52 | 59 | 2.0 | 3.0 | 0.00 | 0.00 | 0.00 | 42 | 1011.9 |
| 20260503185956 | 51 | 128 | 2.0 | 3.0 | 0.00 | 0.00 | 0.00 | 42 | 1012.0 |
| 20260503185452 | 53 | 71 | 3.0 | 3.0 | 0.00 | 0.00 | 0.00 | 41 | 1012.2 |
| 20260503184951 | 54 | 258 | 5.0 | 9.0 | 0.00 | 0.00 | 0.00 | 41 | 1012.5 |
| 20260503184448 | 53 | 55 | 2.0 | 2.0 | 0.00 | 0.00 | 0.00 | 42 | 1012.3 |
| 20260503183944 | 52 | 101 | 1.0 | 1.0 | 0.00 | 0.00 | 0.00 | 43 | 1012.1 |
| 20260503183441 | 52 | 271 | 2.0 | 3.0 | 0.00 | 0.00 | 0.00 | 41 | 1012.4 |
| 20260503182938 | 53 | 356 | 2.0 | 2.0 | 0.00 | 0.00 | 0.00 | 41 | 1012.3 |
| 20260503182437 | 56 | 120 | 1.0 | 1.0 | 0.00 | 0.00 | 0.00 | 40 | 1012.5 |
| 20260503181934 | 55 | 347 | 1.0 | 3.0 | 0.00 | 0.00 | 0.00 | 40 | 1012.4 |
| 20260503181431 | 53 | 141 | 3.0 | 6.0 | 0.00 | 0.00 | 0.00 | 41 | 1012.4 |
| 20260503180927 | 53 | 105 | 2.0 | 2.0 | 0.00 | 0.00 | 0.00 | 42 | 1012.2 |
| 20260503180426 | 51 | 115 | 2.0 | 3.0 | 0.00 | 0.00 | 0.00 | 44 | 1012.4 |
| 20260503175922 | 52 | 124 | 1.0 | 2.0 | 0.00 | 0.00 | 0.00 | 42 | 1012.4 |
| 20260503175420 | 50 | 267 | 9.0 | 14.0 | 0.00 | 0.00 | 0.00 | 42 | 1012.5 |
| 20260503174915 | 50 | 357 | 3.0 | 4.0 | 0.00 | 0.00 | 0.00 | 43 | 1012.4 |
| 20260503174414 | 53 | 353 | 5.0 | 8.0 | 0.00 | 0.00 | 0.00 | 41 | 1012.4 |
| 20260503173908 | 50 | 133 | 3.0 | 4.0 | 0.00 | 0.00 | 0.00 | 44 | 1012.5 |
| 20260503173405 | 49 | 268 | 7.0 | 10.0 | 0.00 | 0.00 | 0.00 | 44 | 1012.4 |
| 20260503172902 | 49 | 78 | 4.0 | 6.0 | 0.00 | 0.00 | 0.00 | 44 | 1012.7 |
| 20260503172359 | 50 | 250 | 4.0 | 6.0 | 0.00 | 0.00 | 0.00 | 45 | 1012.5 |
| 20260503171855 | 50 | 199 | 5.0 | 7.0 | 0.00 | 0.00 | 0.00 | 41 | 1012.5 |
| 20260503171352 | 51 | 313 | 5.0 | 8.0 | 0.00 | 0.00 | 0.00 | 39 | 1012.5 |
| 20260503170850 | 50 | 79 | 3.0 | 4.0 | 0.00 | 0.00 | 0.00 | 44 | 1012.4 |
| 20260503170346 | 51 | 134 | 0.0 | 1.0 | 0.00 | 0.00 | 0.00 | 42 | 1012.4 |
| 20260503150738 | 45 | 56 | 4.0 | 6.0 | 0.00 | 0.00 | 0.00 | 53 | 1012.8 |
| 20260503150234 | 46 | 125 | 0.0 | 0.0 | 0.00 | 0.00 | 0.00 | 55 | 1012.7 |
| 20260503140159 | 45 | 250 | 5.0 | 9.0 | 0.00 | 0.00 | 0.00 | 55 | 1012.8 |
| 20260503131129 | 42 | 105 | 1.0 | 2.0 | 0.00 | 0.00 | 0.00 | 64 | 1013.0 |
| 20260503130626 | 43 | 48 | 4.0 | 6.0 | 0.00 | 0.00 | 0.00 | 63 | 1013.1 |
| 20260503130124 | 42 | 62 | 2.0 | 2.0 | 0.00 | 0.00 | 0.00 | 65 | 1013.2 |
| 20260503110516 | 35 | 94 | 0.0 | 1.0 | 0.00 | 0.00 | 0.00 | 78 | 1012.6 |
| 20260503090403 | 37 | 147 | 1.0 | 1.0 | 0.00 | 0.00 | 0.00 | 73 | 1012.2 |
| 20260503081329 | 37 | 208 | 2.0 | 2.0 | 0.00 | 0.00 | 0.00 | 71 | 1012.2 |
| 20260503080826 | 37 | 269 | 2.0 | 2.0 | 0.00 | 0.00 | 0.00 | 71 | 1012.2 |
| 20260503080323 | 37 | 199 | 1.0 | 2.0 | 0.00 | 0.00 | 0.00 | 71 | 1012.1 |
| 20260503072759 | 38 | 115 | 1.0 | 1.0 | 0.00 | 0.00 | 0.00 | 70 | 1012.5 |
| 20260503072256 | 38 | 113 | 1.0 | 2.0 | 0.00 | 0.00 | 0.00 | 71 | 1012.2 |
| 20260503071752 | 38 | 166 | 1.0 | 1.0 | 0.00 | 0.00 | 0.00 | 70 | 1012.6 |
| 20260503071250 | 38 | 105 | 0.0 | 0.0 | 0.00 | 0.00 | 0.00 | 71 | 1012.3 |
| 20260503070746 | 38 | 176 | 1.0 | 2.0 | 0.00 | 0.00 | 0.00 | 70 | 1012.5 |
| 20260503070244 | 38 | 163 | 1.0 | 2.0 | 0.00 | 0.00 | 0.00 | 70 | 1012.6 |
| 20260503060209 | 39 | 121 | 0.0 | 1.0 | 0.00 | 0.00 | 0.00 | 68 | 1012.7 |
| 20260503054656 | 40 | 333 | 1.0 | 2.0 | 0.00 | 0.00 | 0.00 | 67 | 1013.0 |
| 20260503054153 | 40 | 143 | 1.0 | 1.0 | 0.00 | 0.00 | 0.00 | 67 | 1012.7 |
| 20260503053651 | 40 | 117 | 1.0 | 1.0 | 0.00 | 0.00 | 0.00 | 66 | 1013.0 |
| 20260503053149 | 40 | 105 | 0.0 | 1.0 | 0.00 | 0.00 | 0.00 | 66 | 1012.9 |
| 20260503052645 | 40 | 113 | 1.0 | 1.0 | 0.00 | 0.00 | 0.00 | 66 | 1013.0 |
| 20260503052142 | 41 | 140 | 1.0 | 1.0 | 0.00 | 0.00 | 0.00 | 65 | 1013.1 |
| 20260503051637 | 41 | 183 | 2.0 | 2.0 | 0.00 | 0.00 | 0.00 | 65 | 1013.2 |
| 20260503051135 | 41 | 113 | 1.0 | 1.0 | 0.00 | 0.00 | 0.00 | 65 | 1013.1 |
| 20260503050631 | 41 | 107 | 0.0 | 1.0 | 0.00 | 0.00 | 0.00 | 65 | 1013.2 |
| 20260503050128 | 41 | 104 | 1.0 | 1.0 | 0.00 | 0.00 | 0.00 | 65 | 1013.4 |
| 20260503045626 | 41 | 101 | 0.0 | 1.0 | 0.00 | 0.00 | 0.00 | 64 | 1013.3 |
| 20260503045123 | 41 | 136 | 1.0 | 1.0 | 0.00 | 0.00 | 0.00 | 64 | 1013.5 |
| 20260503044619 | 41 | 138 | 0.0 | 1.0 | 0.00 | 0.00 | 0.00 | 65 | 1013.7 |
| 20260503044117 | 41 | 113 | 0.0 | 1.0 | 0.00 | 0.00 | 0.00 | 63 | 1013.4 |
| 20260503043613 | 41 | 163 | 1.0 | 1.0 | 0.00 | 0.00 | 0.00 | 62 | 1013.5 |
| 20260503043110 | 41 | 114 | 2.0 | 2.0 | 0.00 | 0.00 | 0.00 | 62 | 1013.6 |
| 20260503042607 | 41 | 127 | 0.0 | 0.0 | 0.00 | 0.00 | 0.00 | 62 | 1013.6 |
| 20260503042103 | 41 | 120 | 0.0 | 1.0 | 0.00 | 0.00 | 0.00 | 64 | 1013.5 |
| 20260503041559 | 41 | 116 | 1.0 | 1.0 | 0.00 | 0.00 | 0.00 | 62 | 1013.7 |
| 20260503041058 | 41 | 152 | 1.0 | 1.0 | 0.00 | 0.00 | 0.00 | 61 | 1013.8 |
| 20260503040554 | 41 | 121 | 0.0 | 0.0 | 0.00 | 0.00 | 0.00 | 61 | 1013.8 |
| 20260503040052 | 42 | 132 | 0.0 | 0.0 | 0.00 | 0.10 | 0.10 | 62 | 1013.6 |
| 20260503035548 | 42 | 162 | 1.0 | 2.0 | 0.00 | 0.10 | 0.10 | 61 | 1013.6 |
| 20260503035046 | 42 | 167 | 3.0 | 4.0 | 0.00 | 0.10 | 0.10 | 61 | 1013.6 |
| 20260503034543 | 42 | 123 | 1.0 | 1.0 | 0.00 | 0.10 | 0.10 | 61 | 1013.4 |
| 20260503034040 | 42 | 109 | 0.0 | 0.0 | 0.00 | 0.10 | 0.10 | 61 | 1013.6 |
| 20260503033537 | 42 | 119 | 1.0 | 1.0 | 0.00 | 0.10 | 0.10 | 61 | 1013.5 |
| 20260503033035 | 42 | 127 | 1.0 | 1.0 | 0.00 | 0.10 | 0.10 | 61 | 1013.5 |
| 20260503032533 | 43 | 132 | 0.0 | 0.0 | 0.00 | 0.10 | 0.10 | 59 | 1013.4 |
| 20260503032031 | 43 | 107 | 0.0 | 0.0 | 0.00 | 0.10 | 0.10 | 60 | 1013.6 |
| 20260503031529 | 43 | 123 | 1.0 | 1.0 | 0.00 | 0.10 | 0.10 | 59 | 1013.5 |
| 20260503031026 | 43 | 104 | 1.0 | 1.0 | 0.00 | 0.10 | 0.10 | 59 | 1013.6 |
| 20260503030521 | 43 | 11 | 1.0 | 2.0 | 0.00 | 0.10 | 0.10 | 60 | 1013.4 |
| 20260503030019 | 43 | 120 | 0.0 | 0.0 | 0.00 | 0.10 | 0.10 | 61 | 1013.8 |
| 20260503025515 | 43 | 139 | 0.0 | 0.0 | 0.00 | 0.10 | 0.10 | 62 | 1013.7 |
| 20260503025014 | 44 | 126 | 0.0 | 0.0 | 0.00 | 0.10 | 0.10 | 60 | 1013.6 |
| 20260503024509 | 44 | 306 | 2.0 | 2.0 | 0.00 | 0.10 | 0.10 | 59 | 1013.6 |
| 20260503024007 | 44 | 112 | 0.0 | 0.0 | 0.00 | 0.10 | 0.10 | 57 | 1013.8 |
| 20260503023503 | 44 | 121 | 0.0 | 1.0 | 0.00 | 0.10 | 0.10 | 59 | 1013.8 |
| 20260503023000 | 44 | 105 | 0.0 | 1.0 | 0.00 | 0.10 | 0.10 | 59 | 1013.6 |
| 20260503022456 | 45 | 119 | 0.0 | 1.0 | 0.00 | 0.10 | 0.10 | 58 | 1013.8 |
| 20260503021951 | 45 | 95 | 0.0 | 0.0 | 0.00 | 0.10 | 0.10 | 59 | 1013.8 |
| 20260503021448 | 45 | 143 | 0.0 | 1.0 | 0.00 | 0.10 | 0.10 | 60 | 1013.8 |
| 20260503020945 | 45 | 228 | 2.0 | 3.0 | 0.00 | 0.10 | 0.10 | 57 | 1013.9 |
| 20260503020443 | 45 | 163 | 2.0 | 2.0 | 0.00 | 0.10 | 0.10 | 59 | 1013.9 |
| 20260503015939 | 44 | 119 | 1.0 | 1.0 | 0.00 | 0.10 | 0.10 | 58 | 1013.9 |
| 20260503015436 | 44 | 137 | 1.0 | 1.0 | 0.00 | 0.10 | 0.10 | 63 | 1013.7 |
| 20260503014932 | 44 | 117 | 0.0 | 0.0 | 0.00 | 0.10 | 0.10 | 59 | 1013.6 |
| 20260503014429 | 44 | 122 | 0.0 | 1.0 | 0.00 | 0.10 | 0.10 | 59 | 1013.8 |
| 20260503013927 | 45 | 117 | 0.0 | 0.0 | 0.00 | 0.10 | 0.10 | 61 | 1013.6 |
| 20260503013424 | 45 | 117 | 0.0 | 0.0 | 0.00 | 0.10 | 0.10 | 59 | 1013.7 |
| 20260503012921 | 45 | 121 | 0.0 | 0.0 | 0.00 | 0.10 | 0.10 | 59 | 1013.6 |
| 20260503012419 | 45 | 117 | 0.0 | 0.0 | 0.00 | 0.10 | 0.10 | 58 | 1013.8 |
| 20260503011915 | 46 | 113 | 0.0 | 0.0 | 0.00 | 0.10 | 0.10 | 58 | 1013.7 |
| 20260503011412 | 46 | 117 | 0.0 | 0.0 | 0.00 | 0.10 | 0.10 | 57 | 1013.8 |
| 20260503010909 | 46 | 110 | 1.0 | 1.0 | 0.00 | 0.10 | 0.10 | 58 | 1013.8 |
| 20260503010406 | 46 | 120 | 0.0 | 1.0 | 0.00 | 0.10 | 0.10 | 57 | 1013.6 |
| 20260503005903 | 46 | 122 | 0.0 | 1.0 | 0.00 | 0.10 | 0.10 | 55 | 1013.5 |
| 20260503005400 | 47 | 124 | 0.0 | 1.0 | 0.00 | 0.10 | 0.10 | 54 | 1013.4 |
| 20260503004856 | 47 | 119 | 1.0 | 1.0 | 0.00 | 0.10 | 0.10 | 55 | 1013.4 |
| 20260503004354 | 47 | 99 | 0.0 | 1.0 | 0.00 | 0.10 | 0.10 | 56 | 1013.6 |
| 20260503003852 | 48 | 113 | 0.0 | 0.0 | 0.00 | 0.10 | 0.10 | 55 | 1013.5 |
| 20260503003348 | 48 | 354 | 2.0 | 3.0 | 0.00 | 0.10 | 0.10 | 52 | 1013.3 |
| 20260503002845 | 48 | 163 | 1.0 | 1.0 | 0.00 | 0.10 | 0.10 | 53 | 1013.5 |
| 20260503002342 | 48 | 108 | 1.0 | 2.0 | 0.00 | 0.10 | 0.10 | 54 | 1013.2 |
| 20260503001838 | 48 | 129 | 1.0 | 1.0 | 0.00 | 0.10 | 0.10 | 54 | 1013.4 |
| 20260503001335 | 48 | 157 | 2.0 | 2.0 | 0.00 | 0.10 | 0.10 | 53 | 1013.4 |
| 20260503000833 | 49 | 112 | 0.0 | 0.0 | 0.00 | 0.10 | 0.10 | 54 | 1013.2 |
| 20260503000330 | 49 | 112 | 1.0 | 1.0 | 0.00 | 0.10 | 0.10 | 54 | 1013.2 |
| 20260502235827 | 49 | 117 | 0.0 | 0.0 | 0.00 | 0.10 | 0.10 | 54 | 1013.2 |
| 20260502235324 | 49 | 146 | 2.0 | 2.0 | 0.00 | 0.10 | 0.10 | 51 | 1013.0 |
| 20260502234820 | 49 | 150 | 0.0 | 1.0 | 0.00 | 0.10 | 0.10 | 54 | 1013.0 |
| 20260502234318 | 49 | 185 | 2.0 | 2.0 | 0.00 | 0.10 | 0.10 | 56 | 1013.0 |
| 20260502233814 | 49 | 113 | 0.0 | 1.0 | 0.00 | 0.10 | 0.10 | 60 | 1012.9 |
| 20260502233311 | 50 | 106 | 0.0 | 0.0 | 0.00 | 0.10 | 0.10 | 60 | 1012.7 |
| 20260502232808 | 50 | 128 | 1.0 | 1.0 | 0.00 | 0.10 | 0.10 | 58 | 1012.8 |
| 20260502232305 | 51 | 102 | 0.0 | 0.0 | 0.00 | 0.10 | 0.10 | 57 | 1012.7 |
| 20260502231800 | 51 | 106 | 0.0 | 0.0 | 0.00 | 0.10 | 0.10 | 57 | 1012.5 |
| 20260502231258 | 51 | 109 | 0.0 | 0.0 | 0.00 | 0.10 | 0.10 | 58 | 1012.4 |
| 20260502230756 | 51 | 103 | 0.0 | 0.0 | 0.00 | 0.10 | 0.10 | 56 | 1012.6 |
| 20260502230254 | 52 | 142 | 1.0 | 1.0 | 0.00 | 0.10 | 0.10 | 54 | 1012.4 |
| 20260502225750 | 52 | 104 | 0.0 | 0.0 | 0.00 | 0.10 | 0.10 | 57 | 1012.8 |